This demonstration page uses our WeatherBlox Daily Observations layout. Learn more.

Left ArrowRight Arrow

Hourly Observations for June 17, 2017

Temp ( °F °C ) Dew Point ( °F °C ) Humidity (%) Winds ( mph kmh ) Pressure ( in mb ) Visibility ( mi km ) Precip ( " mm )
12:56 am 00:56 Mostly Cloudy 72 22 66 19 83 83 Calm 29.66 1005 7 11 0.00 0.00
1:55 am 01:55 Mostly Cloudy 70 21 64 18 83 83 Calm 29.65 1004 7 11 0.00 0.00
2:56 am 02:56 Partly Cloudy 70 21 64 18 83 83 VRB 6 9 29.67 1005 7 11 0.00 0.00
3:56 am 03:56 Mostly Cloudy 70 21 64 18 83 83 VRB 6 9 29.68 1005 7 11 0.00 0.00
4:58 am 04:58 Mostly Cloudy 68 20 66 19 94 94 VRB 7 11 29.66 1005 7 11 0.00 0.00
5:55 am 05:55 Mostly Cloudy 66 19 66 19 100 100 VRB 7 11 29.67 1005 7 11 0.00 0.00
6:58 am 06:58 Mostly Cloudy 70 21 66 19 88 88 VRB 7 11 29.67 1005 7 11 0.00 0.00
7:58 am 07:58 Mostly Cloudy 72 22 64 18 78 78 VRB 6 9 29.67 1005 7 11 0.00 0.00
8:57 am 08:57 Mostly Cloudy 73 23 68 20 83 83 VRB 7 11 29.68 1005 7 11 0.00 0.00
11:27 am 11:27 Mostly Cloudy 79 26 68 20 70 70 VRB 7 11 29.67 1005 7 11 0.00 0.00
11:58 am 11:58 Mostly Cloudy 79 26 68 20 70 70 VRB 7 11 29.67 1005 7 11 0.00 0.00
12:56 pm 12:56 Mostly Cloudy 82 28 68 20 62 62 VRB 7 11 29.69 1006 7 11 0.00 0.00
1:58 pm 13:58 Mostly Cloudy 82 28 64 18 55 55 VRB 7 11 29.69 1006 7 11 0.00 0.00
2:57 pm 14:57 Mostly Cloudy 86 30 55 13 35 35 VRB 7 11 29.69 1005 7 11 0.00 0.00
3:55 pm 15:55 Cloudy 86 30 55 13 35 35 VRB 7 11 29.69 1005 7 11 0.00 0.00
4:20 pm 16:20 Cloudy with Light Rain 86 30 55 13 35 35 VRB 7 11 29.73 1007 7 11 0.00 0.00
4:58 pm 16:58 Cloudy 82 28 61 16 48 48 N 9 15 29.73 1007 7 11 0.00 0.03
5:58 pm 17:58 Cloudy 77 25 64 18 65 65 N 7 11 29.74 1007 7 11 0.00 0.00
6:45 pm 18:45 Cloudy with Light Rain 77 25 64 18 65 65 N 7 11 29.74 1007 7 11 0.00 0.00
6:58 pm 18:58 Cloudy with Light Rain 77 25 61 16 57 57 N 7 11 29.74 1007 7 11 0.00 0.00
7:58 pm 19:58 Cloudy with Light Rain 75 24 64 18 69 69 VRB 3 6 29.74 1007 7 11 0.01 0.25
8:28 pm 20:28 Cloudy 75 24 64 18 69 69 VRB 3 6 29.74 1007 7 11 0.00 0.03
8:58 pm 20:58 Mostly Cloudy 73 23 66 19 78 78 VRB 3 6 29.74 1007 7 11 0.00 0.03
9:58 pm 21:58 Partly Cloudy 73 23 64 18 74 74 VRB 3 6 29.74 1007 7 11 0.00 0.00
10:58 pm 22:58 Mostly Clear 68 20 61 16 78 78 VRB 3 6 29.74 1007 7 11 0.00 0.00
11:58 pm 23:58 Mostly Clear 68 20 57 14 69 69 VRB 3 6 29.74 1007 7 11 0.00 0.00

Powered by AerisWeather